Total_Precipitation_Accumulation
0.00 0.00 0.01 0.01 0.01 0.02 0.04 0.08 0.16 0.18 0.17 0.23 0.39 0.65 0.77 0.76 0.81 0.96 1.07 1.27 1.32 1.36 1.62 2.07 2.70 3.34 4.14 5.24 5.90 5.99 5.65 4.92 4.36 3.83 3.52 3.17 2.89 2.65 2.21 1.83 1.59 1.41 1.31 1.23
0.01 0.02 0.02 0.01 0.01 0.03 0.05 0.09 0.17 0.16 0.13 0.15 0.36 0.71 0.81 0.84 0.90 0.90 0.96 1.06 0.99 1.14 1.49 2.09 2.86 3.65 4.27 4.81 5.17 5.21 4.79 4.03 3.52 3.16 3.05 2.73 2.48 2.15 1.92 1.69 1.58 1.33 1.22 1.15
0.02 0.03 0.02 0.01 0.02 0.04 0.08 0.09 0.14 0.17 0.13 0.16 0.36 0.84 1.01 0.94 0.91 0.88 0.77 0.79 0.89 1.09 1.66 2.45 3.28 4.01 4.26 4.24 4.03 3.75 3.54 3.14 3.00 2.88 2.65 2.40 2.31 2.03 1.83 1.57 1.40 1.18 1.02 0.93
0.02 0.03 0.02 0.02 0.04 0.05 0.09 0.07 0.05 0.07 0.12 0.33 0.46 0.91 1.05 1.05 1.02 0.86 0.75 0.81 0.98 1.24 1.79 2.53 3.10 3.33 3.42 3.29 2.96 2.79 2.72 2.61 2.53 2.42 2.26 1.93 1.70 1.63 1.51 1.39 1.32 1.20 1.05 0.97
0.02 0.03 0.03 0.03 0.04 0.05 0.05 0.04 0.04 0.08 0.18 0.34 0.48 0.77 1.07 1.05 1.12 0.74 0.60 0.70 0.82 1.06 1.36 1.60 1.83 2.00 2.11 2.11 2.17 2.21 2.32 2.40 2.27 2.20 2.12 1.98 1.71 1.66 1.64 1.58 1.59 1.47 1.29 1.08
0.03 0.03 0.03 0.03 0.03 0.04 0.04 0.06 0.12 0.21 0.36 0.71 0.70 0.81 1.14 1.10 0.95 0.57 0.39 0.43 0.62 0.77 0.84 0.94 1.04 1.18 1.42 1.46 1.55 1.68 1.78 1.90 2.01 1.99 1.83 1.76 1.68 1.72 1.75 1.65 1.47 1.28 1.18 1.09
0.09 0.07 0.06 0.05 0.05 0.06 0.05 0.09 0.31 0.63 0.98 1.04 0.62 0.72 1.11 1.01 0.69 0.41 0.31 0.27 0.33 0.50 0.67 0.82 0.94 1.07 1.26 1.19 1.20 1.33 1.41 1.44 1.55 1.55 1.49 1.51 1.59 1.60 1.51 1.42 1.32 1.17 0.98 0.95
0.15 0.14 0.09 0.06 0.06 0.06 0.06 0.07 0.18 0.35 0.46 0.62 0.64 1.12 1.34 0.74 0.43 0.31 0.27 0.23 0.25 0.40 0.57 0.66 0.67 0.77 0.89 0.84 0.91 1.01 1.14 1.20 1.22 1.27 1.30 1.30 1.39 1.32 1.27 1.35 1.27 1.13 0.94 0.87
0.06 0.08 0.07 0.07 0.07 0.07 0.06 0.05 0.07 0.09 0.17 0.43 0.79 1.13 1.08 0.62 0.43 0.29 0.25 0.23 0.24 0.31 0.44 0.50 0.41 0.45 0.58 0.68 0.74 0.79 0.96 1.07 1.07 1.16 1.20 1.15 1.20 1.25 1.31 1.31 1.20 1.05 1.05 0.94
0.04 0.03 0.05 0.05 0.07 0.07 0.06 0.06 0.07 0.10 0.18 0.37 0.70 1.13 1.30 0.94 0.52 0.34 0.33 0.34 0.32 0.29 0.33 0.36 0.34 0.33 0.41 0.54 0.69 0.78 0.89 0.98 1.01 1.10 1.08 0.92 1.04 1.16 1.31 1.26 1.17 1.10 1.12 1.04
0.03 0.02 0.05 0.05 0.07 0.08 0.09 0.08 0.10 0.10 0.11 0.21 0.54 0.80 0.69 0.68 0.49 0.46 0.42 0.39 0.36 0.32 0.35 0.33 0.28 0.27 0.30 0.39 0.58 0.71 0.82 0.91 0.94 1.00 1.06 1.10 1.09 1.01 1.12 1.17 1.16 1.19 1.21 1.14
0.03 0.03 0.04 0.08 0.10 0.10 0.11 0.11 0.12 0.13 0.12 0.13 0.27 0.43 0.42 0.60 0.57 0.51 0.48 0.47 0.45 0.33 0.29 0.30 0.32 0.33 0.33 0.34 0.45 0.56 0.67 0.80 0.86 0.93 1.05 1.12 1.17 1.07 1.07 1.10 1.18 1.23 1.30 1.34
0.03 0.04 0.06 0.15 0.22 0.18 0.12 0.11 0.12 0.12 0.10 0.11 0.27 0.43 0.42 0.48 0.51 0.46 0.53 0.52 0.44 0.42 0.38 0.34 0.37 0.40 0.44 0.42 0.43 0.52 0.65 0.78 0.89 0.97 1.03 1.11 1.17 1.12 1.10 1.23 1.33 1.34 1.45 1.54
0.04 0.04 0.06 0.15 0.25 0.28 0.20 0.13 0.12 0.10 0.08 0.09 0.16 0.38 0.42 0.46 0.45 0.52 0.56 0.57 0.55 0.51 0.43 0.35 0.33 0.35 0.40 0.52 0.57 0.63 0.80 0.81 0.80 0.95 1.06 1.14 1.20 1.21 1.22 1.32 1.41 1.43 1.49 1.60
0.04 0.04 0.04 0.05 0.09 0.15 0.19 0.17 0.13 0.09 0.07 0.09 0.16 0.31 0.40 0.49 0.54 0.55 0.57 0.53 0.48 0.44 0.40 0.33 0.31 0.32 0.41 0.54 0.57 0.62 0.74 0.92 0.95 1.11 1.25 1.32 1.43 1.49 1.52 1.59 1.61 1.57 1.57 1.57
0.07 0.06 0.04 0.04 0.07 0.11 0.13 0.16 0.11 0.09 0.07 0.07 0.15 0.34 0.42 0.43 0.46 0.55 0.56 0.56 0.53 0.44 0.40 0.42 0.44 0.43 0.46 0.51 0.58 0.65 0.69 0.84 1.02 1.28 1.56 1.60 1.68 1.74 1.83 1.97 2.04 1.96 1.92 1.97
0.13 0.10 0.08 0.07 0.10 0.11 0.15 0.15 0.12 0.14 0.13 0.14 0.22 0.33 0.37 0.42 0.51 0.70 0.72 0.67 0.66 0.60 0.56 0.58 0.64 0.61 0.59 0.58 0.63 0.70 0.76 0.89 1.12 1.37 1.62 1.82 1.92 1.99 2.08 2.18 2.20 2.13 2.20 2.33
0.19 0.19 0.16 0.12 0.16 0.22 0.19 0.19 0.17 0.19 0.22 0.26 0.34 0.37 0.47 0.66 0.76 0.88 0.93 0.83 0.79 0.71 0.64 0.65 0.74 0.79 0.74 0.72 0.80 0.91 1.06 1.21 1.40 1.60 1.79 1.94 1.96 1.97 2.03 2.11 2.05 2.07 2.18 2.25
0.21 0.25 0.26 0.22 0.25 0.24 0.26 0.29 0.30 0.34 0.47 0.46 0.54 0.60 0.69 0.77 0.77 0.82 0.78 0.68 0.63 0.61 0.68 0.72 0.78 0.87 0.91 0.92 0.99 1.06 1.17 1.31 1.50 1.66 1.75 1.77 1.85 1.93 1.99 2.02 2.06 2.09 2.09 1.99
0.31 0.31 0.40 0.36 0.38 0.40 0.42 0.45 0.41 0.47 0.88 0.90 0.84 0.80 0.77 0.80 0.99 0.95 0.75 0.66 0.65 0.63 0.65 0.75 0.76 0.80 0.89 0.98 0.99 1.02 1.14 1.33 1.54 1.70 1.74 1.73 1.83 1.92 1.99 2.04 2.08 2.01 1.93 1.88
0.50 0.53 0.51 0.49 0.53 0.49 0.47 0.42 0.41 0.72 1.03 0.99 0.97 1.01 0.94 1.00 1.06 0.97 0.80 0.78 0.72 0.68 0.65 0.69 0.77 0.84 0.89 0.98 1.02 1.09 1.20 1.33 1.43 1.49 1.57 1.65 1.79 1.93 1.98 2.00 1.96 1.90 1.83 1.84
0.59 0.64 0.64 0.65 0.80 0.84 0.61 0.51 0.72 0.96 0.84 0.98 1.09 1.08 1.06 0.99 0.90 0.90 0.88 0.88 0.83 0.75 0.76 0.79 0.85 0.98 1.05 1.11 1.12 1.18 1.17 1.20 1.30 1.30 1.36 1.40 1.50 1.64 1.69 1.74 1.69 1.69 1.66 1.62
0.76 0.76 0.78 0.89 1.00 0.83 0.71 0.73 0.81 0.85 0.87 0.90 1.01 1.08 1.05 1.06 1.02 0.88 0.83 0.81 0.91 0.95 0.94 0.91 0.90 0.97 1.04 1.13 1.20 1.23 1.17 1.10 1.09 1.13 1.20 1.24 1.27 1.41 1.54 1.57 1.51 1.49 1.48 1.45
0.94 0.76 0.83 1.08 1.15 1.00 0.91 0.88 0.82 0.79 0.82 0.83 0.93 1.06 1.12 1.07 0.92 0.83 0.74 0.66 0.63 0.66 0.71 0.79 0.84 0.91 1.06 1.04 1.05 1.10 1.13 1.11 1.14 1.18 1.18 1.20 1.24 1.33 1.55 1.63 1.50 1.41 1.38 1.33
0.97 0.99 1.02 1.20 1.26 1.08 0.96 0.91 0.95 0.88 0.83 0.83 0.93 1.01 1.00 0.90 0.84 0.78 0.69 0.60 0.54 0.53 0.55 0.59 0.64 0.67 0.74 0.76 0.80 0.84 0.89 0.96 1.00 0.99 0.96 0.95 1.02 1.14 1.34 1.45 1.42 1.28 1.24 1.28
0.84 1.01 1.15 1.29 1.18 1.20 1.21 1.09 1.05 1.06 1.02 0.98 1.00 1.05 0.97 0.85 0.80 0.73 0.61 0.54 0.51 0.48 0.48 0.53 0.56 0.58 0.60 0.65 0.74 0.84 0.97 1.08 1.06 0.98 0.92 0.91 0.90 0.99 1.17 1.37 1.44 1.29 1.10 1.12